Regional Weather Roundup
Issued by NWS

Home | Current Version | Previous Version | Graphics & Text | Print | Product List | Glossary On
Versions: 1 2 3 4 5 6 7 8 9 10 11 12 13 14 15 16 17 18 19 20 21 22 23 24 25 26 27 28 29 30 31 32 33 34 35 36 37 38 39 40 41 42 43 44 45 46 47 48 49 50
000
ASUS43 KIND 220609
RWRIN

WEATHER ROUNDUP FOR INDIANA
NATIONAL WEATHER SERVICE INDIANAPOLIS IN
100 AM EST MON DEC 22 2014

NOTE: "FAIR" INDICATES FEW OR NO CLOUDS BELOW 12,000 FEET WITH NO
SIGNIFICANT WEATHER AND/OR OBSTRUCTIONS TO VISIBILITY.

* - STATION DOES NOT REPORT WEATHER SUCH AS PRECIPITATION OR FOG.

+ - STATION NOT QUALITY CONTROLLED BY THE NATIONAL WEATHER SERVICE.
    USE DATA WITH CAUTION...ESPECIALLY DEWPOINT AND RELATIVE
    HUMIDITY OBSERVATIONS.

INZ001>003-010>013-019-020-220700-
NORTHWEST INDIANA

CITY           SKY/WX    TMP DP  RH WIND       PRES   REMARKS
GARY /AIRPORT/ MOCLDY    33  25  71 S7        30.05S WCI  27
KNOX *+        PTCLDY    30  23  77 SE10      30.05F WCI  21
LA PORTE +     MOCLDY    31  28  86 SE6       30.06F FOG     WCI  25
6HR MIN TEMP:  31; 6HR MAX TEMP:  33;

MICHIGAN CITY+ PTCLDY    32  23  69 SE6       30.06F WCI  26
MONTICELLO +   CLEAR     30  27  88 SE3       30.05F
RENSSELAER +   CLEAR     32  30  93 SE8       30.04F FOG     WCI  25
VALPARAISO     PTCLDY    29  25  85 SE8       30.05F WCI  21
6HR MIN TEMP:  29; 6HR MAX TEMP:  32;


$$

LMZ046-743>745-220700-
SOUTHERN LAKE MICHIGAN

STATION/POSITION TIME  TEMP WIND        PRES
                       AIR  DIR/SP/G
                 (UTC) (F)  (DEG/KT/KT) (MB)

$$

INZ004-005-014>016-021>024-220700-
NORTH CENTRAL INDIANA

CITY           SKY/WX    TMP DP  RH WIND       PRES   REMARKS
GOSHEN         CLEAR     29  24  82 SE12      30.08F WCI  19
6HR MIN TEMP:  28; 6HR MAX TEMP:  32;

LOGANSPORT +   CLEAR     28  27  93 E7        30.07F FOG     WCI  21
PERU/GRISSOM   PTCLDY    28  28 100 E7        30.05F WCI  21
6HR MIN TEMP:  28; 6HR MAX TEMP:  31;

ROCHESTER +    CLEAR     32  30  93 SE7       30.07F FOG     WCI  26
SOUTH BEND     PTCLDY    31  25  78 SE10      30.08F WCI  22
6HR MIN TEMP:  31; 6HR MAX TEMP:  33;

WARSAW +       PTCLDY    30  27  86 SE5       30.08F FOG     WCI  25

$$

INZ006>009-017-018-025>027-220700-
NORTHEAST INDIANA

CITY           SKY/WX    TMP DP  RH WIND       PRES   REMARKS
ANGOLA *+      CLEAR     27  21  80 SE7       30.09F WCI  19
AUBURN +       PTCLDY    28  23  80 E5        30.11F HAZE    WCI  23
FORT WAYNE     MOCLDY    27  24  89 E7        30.10F WCI  19
6HR MIN TEMP:  26; 6HR MAX TEMP:  29;

HUNTINGTON +   PTCLDY    28  25  91 SE5       30.08F WCI  22
6HR MIN TEMP:  28; 6HR MAX TEMP:  30;


$$

INZ028-029-035-036-043>045-051>053-220700-
WEST CENTRAL INDIANA

CITY           SKY/WX    TMP DP  RH WIND       PRES   REMARKS
GREENCASTLE +  PTCLDY    28  23  80 E5        30.04F WCI  23
LAFAYETTE      PTCLDY    27  24  89 E6        30.05F WCI  20
6HR MIN TEMP:  27; 6HR MAX TEMP:  32;

TERRE HAUTE    PTCLDY    30  25  81 SE6       30.03F WCI  24
6HR MIN TEMP:  29; 6HR MAX TEMP:  33;


$$

INZ030>032-037>040-046>048-054>057-064-065-220700-
CENTRAL INDIANA

CITY           SKY/WX    TMP DP  RH WIND       PRES   REMARKS
CP ATTERBURY + MOCLDY    28  27  93 MISG      30.07F
FRANKFORT +    PTCLDY    28  27  93 E6        30.07S FOG     WCI  22
INDIANAPOLIS   MOCLDY    28  24  85 SE6       30.06S WCI  22
6HR MIN TEMP:  28; 6HR MAX TEMP:  31;

-EAGLE CREEK   PTCLDY    30  25  81 SE5       30.06S WCI  25
6HR MIN TEMP:  28; 6HR MAX TEMP:  32;

KOKOMO *+      PTCLDY    28  25  86 E9        30.05F WCI  20
MARION +       MOCLDY    29  25  87 SE7       30.08F WCI  21
MT COMFORT *+  MOCLDY    30  23  74 SE8       30.06F WCI  23
SHELBYVILLE    PTCLDY    31  25  78 E10       30.05F WCI  22
6HR MIN TEMP:  30; 6HR MAX TEMP:  32;

ZIONSVILLE +   PTCLDY    30  25  81 SE5       30.06S WCI  25
6HR MIN TEMP:  30; 6HR MAX TEMP:  32;


$$

INZ033-034-041-042-049-050-058-059-220700-
EAST CENTRAL INDIANA

CITY           SKY/WX    TMP DP  RH WIND       PRES   REMARKS
MUNCIE         MOCLDY    30  25  81 SE7       30.07F WCI  23
6HR MIN TEMP:  28; 6HR MAX TEMP:  31;


$$

INZ060-061-067>069-081>083-085>088-220700-
SOUTHWEST INDIANA

CITY           SKY/WX    TMP DP  RH WIND       PRES   REMARKS
EVANSVILLE     CLEAR     34  27  75 NE5       30.01F WCI  30
6HR MIN TEMP:  32; 6HR MAX TEMP:  38;

HUNTINGBURG *+ PTCLDY    34  27  75 E6        30.01F WCI  29
6HR MIN TEMP:  34; 6HR MAX TEMP:  37;

WASHINGTON +   PTCLDY    31  27  83 SE7       30.02F WCI  25
6HR MIN TEMP:  30; 6HR MAX TEMP:  34;


$$

INZ062-063-066-070>080-084-089>092-220700-
SOUTH CENTRAL AND SOUTHEAST INDIANA

CITY           SKY/WX    TMP DP  RH WIND       PRES   REMARKS
BLOOMINGTON    PTCLDY    29  26  89 E7        30.02F WCI  22
6HR MIN TEMP:  29; 6HR MAX TEMP:  32;

SEYMOUR +      PTCLDY    28  25  86 CALM      30.06

$$




USA.gov is the U.S. government's official web portal to all federal, state and local government web resources and services.